Linden, NJ

10:22 AM EST on February 27, 2017 (GMT -0500)
Linden

Weather History for KLDJ - November, 2013

Change the Weather History Date:

Monday, November 4, 2013

  Actual Average (KEWR) Record (KEWR)
Temperature  
Mean Temperature 40 °F -  
Max Temperature 47 °F 60 °F 79 °F (1994)
Min Temperature 34 °F 45 °F 26 °F (1951)
Degree Days  
Heating Degree Days 24    
Moisture  
Dew Point 18 °F    
Average Humidity 40    
Maximum Humidity 58    
Minimum Humidity 27    
Precipitation  
Precipitation 0.00 in - - ()
Sea Level Pressure  
Sea Level Pressure 30.62 in    
Wind  
Wind Speed 6 mph (ENE)    
Max Wind Speed 12 mph    
Max Gust Speed 17 mph    
Visibility 10 miles    
Events      
Averages and records for this station are not official NWS values.
T = Trace of Precipitation, MM = Missing Value Source: NWS Daily Summary

Daily Weather History Graph

Daily Weather History Graph

Search for Another Location

Airport or City:

Trip Planner

Search our weather history database for the weather conditions in past years. The results will help you decide how hot, cold, wet, or windy it might be!

Date:

Astronomy

Nov. 04, 2013 Rise Set
Actual Time 6:30 AM EST 4:49 PM EST
Civil Twilight 6:02 AM EST 5:18 PM EST
Nautical Twilight 5:29 AM EST 5:50 PM EST
Astronomical Twilight 4:57 AM EST 6:22 PM EST
Moon 7:38 AM EST (11/4) 5:51 PM EST (11/4)
Length of Visible Light 11h 15m
Length of Day
10h 18m
New Moon, 2% of the Moon is Illuminated
Nov 4
New Moon
Nov 10
First Quarter
Nov 17
Full
Nov 25
Last Quarter
Dec 2
New

Hourly Weather History & Observations

Time (EST) Temp. Windchill Dew Point Humidity Pressure Visibility Wind Dir Wind Speed Gust Speed Precip Events Conditions
12:15 AM 36.7 °F 32.0 °F 20.8 °F 53% 30.49 in 10.0 mi North 5.8 mph - N/A   Clear
12:35 AM 36.5 °F 31.8 °F 20.8 °F 53% 30.49 in 10.0 mi North 5.8 mph - N/A   Clear
12:55 AM 36.3 °F 30.8 °F 21.0 °F 54% 30.50 in 10.0 mi North 6.9 mph - N/A   Clear
1:15 AM 36.5 °F 31.8 °F 20.3 °F 52% 30.50 in 10.0 mi NNE 5.8 mph - N/A   Clear
1:55 AM 36.5 °F 31.8 °F 18.3 °F 48% 30.52 in 10.0 mi NNE 5.8 mph - N/A   Clear
2:15 AM 36.5 °F 29.7 °F 17.4 °F 46% 30.53 in 10.0 mi NNE 9.2 mph - N/A   Clear
2:35 AM 36.1 °F 29.9 °F 17.1 °F 46% 30.53 in 10.0 mi NNE 8.1 mph - N/A   Clear
2:55 AM 36.0 °F 29.0 °F 16.9 °F 46% 30.54 in 10.0 mi NNE 9.2 mph - N/A   Clear
3:15 AM 35.8 °F 28.3 °F 16.7 °F 46% 30.54 in 10.0 mi NNE 10.4 mph - N/A   Clear
3:35 AM 35.6 °F 31.7 °F 16.5 °F 46% 30.55 in 10.0 mi NNE 4.6 mph - N/A   Clear
3:55 AM 35.6 °F 29.9 °F 16.7 °F 46% 30.55 in 10.0 mi NE 6.9 mph - N/A   Clear
4:15 AM 35.6 °F 29.2 °F 16.7 °F 46% 30.56 in 10.0 mi NNE 8.1 mph - N/A   Clear
4:35 AM 35.1 °F 28.6 °F 17.4 °F 49% 30.57 in 10.0 mi NNE 8.1 mph - N/A   Clear
4:55 AM 34.9 °F 29.9 °F 17.6 °F 49% 30.57 in 10.0 mi NNE 5.8 mph - N/A   Clear
5:15 AM 34.7 °F 28.1 °F 18.0 °F 51% 30.59 in 10.0 mi NNE 8.1 mph - N/A   Clear
5:35 AM 34.7 °F 28.8 °F 18.0 °F 51% 30.59 in 10.0 mi NNE 6.9 mph - N/A   Clear
5:55 AM 34.7 °F 30.6 °F 18.0 °F 51% 30.60 in 10.0 mi NNE 4.6 mph - N/A   Clear
6:15 AM 34.7 °F 30.6 °F 17.8 °F 50% 30.60 in 10.0 mi NE 4.6 mph - N/A   Clear
6:35 AM 34.7 °F 28.8 °F 17.8 °F 50% 30.61 in 10.0 mi NNE 6.9 mph - N/A   Clear
6:55 AM 34.9 °F 30.8 °F 17.8 °F 50% 30.61 in 10.0 mi NE 4.6 mph - N/A   Clear
7:15 AM 35.8 °F 30.9 °F 18.1 °F 49% 30.62 in 10.0 mi NNE 5.8 mph - N/A   Clear
7:35 AM 36.7 °F 32.0 °F 18.0 °F 47% 30.63 in 10.0 mi NNE 5.8 mph - N/A   Clear
7:55 AM 37.6 °F 31.0 °F 17.4 °F 44% 30.63 in 10.0 mi NNE 9.2 mph - N/A   Clear
8:15 AM 38.3 °F 30.9 °F 16.3 °F 41% 30.65 in 10.0 mi NE 11.5 mph 17.3 mph N/A   Clear
8:35 AM 39.2 °F 32.0 °F 16.0 °F 39% 30.65 in 10.0 mi ENE 11.5 mph 16.1 mph N/A   Clear
8:55 AM 39.4 °F 32.3 °F 15.8 °F 38% 30.64 in 10.0 mi NE 11.5 mph - N/A   Clear
9:15 AM 40.1 °F 33.6 °F 16.2 °F 38% 30.65 in 10.0 mi ENE 10.4 mph 17.3 mph N/A   Clear
9:35 AM 41.5 °F 36.4 °F 16.9 °F 37% 30.65 in 10.0 mi NE 8.1 mph - N/A   Clear
9:55 AM 42.1 °F 36.6 °F 15.8 °F 35% 30.67 in 10.0 mi NE 9.2 mph 16.1 mph N/A   Clear
10:15 AM 42.8 °F 37.5 °F 16.3 °F 34% 30.67 in 10.0 mi NE 9.2 mph - N/A   Clear
10:35 AM 43.0 °F 37.7 °F 16.2 °F 34% 30.66 in 10.0 mi ENE 9.2 mph 16.1 mph N/A   Clear
10:55 AM 43.7 °F 41.1 °F 16.5 °F 34% 30.65 in 10.0 mi ENE 4.6 mph 10.4 mph N/A   Clear
11:15 AM 45.0 °F 39.7 °F 16.2 °F 32% 30.64 in 10.0 mi ENE 10.4 mph - N/A   Clear
11:35 AM 44.8 °F 41.0 °F 15.3 °F 31% 30.65 in 10.0 mi East 6.9 mph - N/A   Clear
11:55 AM 45.0 °F 42.6 °F 15.3 °F 30% 30.64 in 10.0 mi East 4.6 mph - N/A   Clear
12:15 PM 45.3 °F 42.3 °F 15.6 °F 30% 30.64 in 10.0 mi ESE 5.8 mph - N/A   Clear
12:35 PM 46.6 °F - 16.2 °F 30% 30.64 in 10.0 mi East 8.1 mph - N/A   Clear
12:55 PM 46.6 °F - 16.0 °F 29% 30.64 in 10.0 mi NE 4.6 mph - N/A   Clear
1:15 PM 46.8 °F - 15.3 °F 28% 30.63 in 10.0 mi East 9.2 mph - N/A   Clear
1:35 PM 47.5 °F - 16.0 °F 28% 30.63 in 10.0 mi East 9.2 mph - N/A   Clear
1:55 PM 46.9 °F - 15.4 °F 28% 30.63 in 10.0 mi East 6.9 mph - N/A   Clear
2:15 PM 47.3 °F - 15.6 °F 28% 30.63 in 10.0 mi East 4.6 mph - N/A   Clear
2:35 PM 47.1 °F - 14.7 °F 27% 30.63 in 10.0 mi ESE 5.8 mph - N/A   Clear
2:55 PM 47.1 °F - 15.6 °F 28% 30.64 in 10.0 mi ESE 4.6 mph - N/A   Clear
3:15 PM 47.3 °F - 15.6 °F 28% 30.63 in 10.0 mi ESE 6.9 mph - N/A   Clear
3:35 PM 47.3 °F - 14.7 °F 27% 30.63 in 10.0 mi SE 6.9 mph - N/A   Clear
3:55 PM 46.8 °F - 14.7 °F 28% 30.63 in 10.0 mi ESE 5.8 mph - N/A   Clear
4:15 PM 46.6 °F - 14.9 °F 28% 30.64 in 10.0 mi ESE 5.8 mph - N/A   Clear
4:35 PM 46.4 °F 44.3 °F 16.5 °F 30% 30.64 in 10.0 mi SE 4.6 mph - N/A   Clear
4:55 PM 45.7 °F 44.4 °F 16.3 °F 31% 30.65 in 10.0 mi SE 3.5 mph - N/A   Clear
5:15 PM 45.7 °F - 16.5 °F 31% 30.65 in 10.0 mi Calm Calm - N/A   Clear
5:35 PM 46.0 °F 44.8 °F 17.2 °F 32% 30.65 in 10.0 mi SE 3.5 mph - N/A   Clear
5:55 PM 45.5 °F 44.2 °F 17.4 °F 33% 30.66 in 10.0 mi ESE 3.5 mph - N/A   Clear
6:15 PM 45.7 °F 44.4 °F 18.3 °F 34% 30.66 in 10.0 mi SE 3.5 mph - N/A   Clear
6:35 PM 45.1 °F 42.8 °F 18.9 °F 35% 30.66 in 10.0 mi SE 4.6 mph - N/A   Clear
6:55 PM 44.8 °F 42.4 °F 18.5 °F 35% 30.65 in 10.0 mi ESE 4.6 mph - N/A   Clear
7:15 PM 44.6 °F 42.2 °F 18.5 °F 35% 30.66 in 10.0 mi ESE 4.6 mph - N/A   Clear
7:35 PM 44.2 °F 41.0 °F 19.4 °F 37% 30.65 in 10.0 mi ESE 5.8 mph - N/A   Clear
7:55 PM 44.2 °F 41.8 °F 19.9 °F 38% 30.65 in 10.0 mi SE 4.6 mph - N/A   Clear
8:15 PM 43.9 °F 41.3 °F 20.3 °F 39% 30.66 in 10.0 mi ESE 4.6 mph - N/A   Clear
8:35 PM 43.7 °F 42.1 °F 21.6 °F 41% 30.66 in 10.0 mi East 3.5 mph - N/A   Clear
8:55 PM 43.5 °F 41.9 °F 21.7 °F 42% 30.68 in 10.0 mi ESE 3.5 mph - N/A   Clear
9:15 PM 43.9 °F 42.3 °F 22.1 °F 42% 30.68 in 10.0 mi East 3.5 mph - N/A   Clear
9:35 PM 44.1 °F 42.5 °F 21.2 °F 40% 30.68 in 10.0 mi East 3.5 mph - N/A   Clear
9:55 PM 44.1 °F 40.8 °F 20.8 °F 40% 30.68 in 10.0 mi East 5.8 mph - N/A   Clear
10:15 PM 43.5 °F - 21.7 °F 42% 30.68 in 10.0 mi Calm Calm - N/A   Clear
10:35 PM 40.8 °F - 24.8 °F 53% 30.68 in 10.0 mi Calm Calm - N/A   Scattered Clouds
10:55 PM 40.6 °F - 25.0 °F 54% 30.68 in 10.0 mi Calm Calm - N/A   Scattered Clouds
11:15 PM 41.0 °F - 25.3 °F 54% 30.67 in 10.0 mi Calm Calm - N/A   Clear
11:35 PM 40.6 °F - 25.7 °F 55% 30.67 in 10.0 mi Calm Calm - N/A   Clear
11:55 PM 39.7 °F 37.6 °F 26.1 °F 58% 30.68 in 10.0 mi WNW 3.5 mph - N/A   Clear